EN

Hourly Weather Bolshie Verhi

Today, 21 October, Wednesday

Time Temperature Precipitation Wind Pressure Humidity
00:00 +1°C° 0 mm 5 mps 741 mmHg 80%
01:00 0°C° 0 mm 5 mps 742 mmHg 79%
02:00 0°C° 0 mm 5 mps 742 mmHg 79%
03:00 0°C° 0 mm 5 mps 743 mmHg 78%
04:00 -1°C° 0 mm 5 mps 743 mmHg 81%
05:00 -1°C° 0 mm 5 mps 743 mmHg 84%
06:00 -2°C° 0 mm 5 mps 743 mmHg 87%
07:00 -1°C° 0 mm 5 mps 744 mmHg 83%
08:00 -2°C° 0 mm 6 mps 744 mmHg 79%
09:00 -2°C° 0 mm 6 mps 744 mmHg 75%
10:00 -2°C° 0 mm 6 mps 745 mmHg 70%
11:00 -1°C° 0 mm 6 mps 745 mmHg 65%
12:00 +1°C° 0 mm 6 mps 745 mmHg 60%
13:00 +1°C° 0 mm 6 mps 745 mmHg 60%
14:00 +1°C° 0 mm 6 mps 745 mmHg 60%
15:00 +1°C° 0 mm 6 mps 745 mmHg 60%
16:00 0°C° 0 mm 5 mps 745 mmHg 63%
17:00 0°C° 0 mm 5 mps 745 mmHg 65%
18:00 -1°C° 0 mm 4 mps 745 mmHg 68%
19:00 -1°C° 0 mm 4 mps 745 mmHg 69%
20:00 0°C° 0 mm 3 mps 745 mmHg 69%
21:00 0°C° 0 mm 3 mps 745 mmHg 69%
22:00 0°C° 0 mm 3 mps 745 mmHg 71%
23:00 +1°C° 0 mm 2 mps 745 mmHg 73%

Tomorrow, 22 October, Thursday

Time Temperature Precipitation Wind Pressure Humidity
00:00 +1°C° 0 mm 2 mps 745 mmHg 75%
01:00 +1°C° 0 mm 2 mps 745 mmHg 78%
02:00 0°C° 0 mm 3 mps 745 mmHg 81%
03:00 0°C° 0 mm 3 mps 745 mmHg 84%
04:00 -1°C° 0 mm 2 mps 745 mmHg 88%
05:00 -1°C° 0 mm 2 mps 745 mmHg 91%
06:00 0°C° 0 mm 1 mps 745 mmHg 95%
07:00 -1°C° 0 mm 2 mps 745 mmHg 92%
08:00 +1°C° 0 mm 2 mps 745 mmHg 89%
09:00 +2°C° 0 mm 2 mps 745 mmHg 86%
10:00 +2°C° 0 mm 2 mps 745 mmHg 85%
11:00 +2°C° 0 mm 3 mps 745 mmHg 83%
12:00 +3°C° 0 mm 3 mps 745 mmHg 82%
13:00 +3°C° 0 mm 3 mps 745 mmHg 82%
14:00 +3°C° 0 mm 3 mps 745 mmHg 82%
15:00 +3°C° 0 mm 3 mps 745 mmHg 82%
16:00 +4°C° 0 mm 2 mps 744 mmHg 83%
17:00 +4°C° 0 mm 2 mps 744 mmHg 84%
18:00 +4°C° 0 mm 2 mps 744 mmHg 84%
19:00 +3°C° 0 mm 3 mps 743 mmHg 83%
20:00 +3°C° 0 mm 3 mps 743 mmHg 82%
21:00 +4°C° 0 mm 4 mps 743 mmHg 81%
22:00 +4°C° 0.1 mm 4 mps 742 mmHg 82%
23:00 +4°C° 0.1 mm 4 mps 742 mmHg 83%

Day after tomorrow, 23 October, Friday

Time Temperature Precipitation Wind Pressure Humidity
00:00 +4°C° 0.1 mm 4 mps 741 mmHg 84%
01:00 +3°C° 0.2 mm 5 mps 741 mmHg 85%
02:00 +3°C° 0.2 mm 5 mps 740 mmHg 86%
03:00 +3°C° 0.2 mm 5 mps 739 mmHg 88%
04:00 +3°C° 0.3 mm 5 mps 739 mmHg 89%
05:00 +3°C° 0.3 mm 5 mps 738 mmHg 90%
06:00 +3°C° 0.3 mm 5 mps 738 mmHg 91%
07:00 +5°C° 0.1 mm 5 mps 737 mmHg 90%
08:00 +5°C° 0.1 mm 5 mps 737 mmHg 90%
09:00 +6°C° 0.1 mm 5 mps 737 mmHg 89%
10:00 +6°C° 0.1 mm 5 mps 737 mmHg 89%
11:00 +7°C° 0.1 mm 5 mps 737 mmHg 90%
12:00 +7°C° 0.1 mm 5 mps 737 mmHg 90%
13:00 +8°C° 0 mm 5 mps 737 mmHg 88%
14:00 +9°C° 0 mm 5 mps 737 mmHg 86%
15:00 +9°C° 0 mm 5 mps 737 mmHg 84%
16:00 +9°C° 0 mm 5 mps 738 mmHg 86%
17:00 +9°C° 0 mm 5 mps 738 mmHg 87%
18:00 +8°C° 0 mm 4 mps 738 mmHg 89%
19:00 +8°C° 0 mm 4 mps 738 mmHg 90%
20:00 +8°C° 0 mm 4 mps 737 mmHg 90%
21:00 +8°C° 0 mm 4 mps 737 mmHg 91%
22:00 +8°C° 0 mm 4 mps 737 mmHg 91%
23:00 +8°C° 0 mm 4 mps 736 mmHg 92%

24 October, Saturday

Time Temperature Precipitation Wind Pressure Humidity
00:00 +8°C° 0 mm 5 mps 736 mmHg 92%
01:00 +8°C° 0.3 mm 6 mps 735 mmHg 92%
02:00 +8°C° 0.3 mm 6 mps 734 mmHg 92%
03:00 +9°C° 0.3 mm 7 mps 734 mmHg 91%
04:00 +9°C° 0.9 mm 7 mps 734 mmHg 92%
05:00 +10°C° 0.9 mm 7 mps 734 mmHg 92%
06:00 +10°C° 0.9 mm 7 mps 734 mmHg 92%
07:00 +10°C° 0 mm 7 mps 734 mmHg 90%
08:00 +10°C° 0 mm 7 mps 734 mmHg 87%
09:00 +10°C° 0 mm 7 mps 735 mmHg 85%
10:00 +11°C° 0 mm 7 mps 735 mmHg 82%
11:00 +11°C° 0 mm 7 mps 736 mmHg 78%
12:00 +11°C° 0 mm 6 mps 736 mmHg 75%
13:00 +11°C° 0 mm 6 mps 736 mmHg 74%
14:00 +12°C° 0 mm 5 mps 737 mmHg 73%
15:00 +10°C° 0 mm 5 mps 737 mmHg 72%
16:00 +11°C° 0 mm 4 mps 737 mmHg 74%
17:00 +11°C° 0 mm 4 mps 738 mmHg 76%
18:00 +10°C° 0 mm 3 mps 738 mmHg 78%
19:00 +10°C° 0 mm 2 mps 738 mmHg 80%
20:00 +10°C° 0 mm 1 mps 738 mmHg 82%
21:00 +9°C° 0 mm 1 mps 738 mmHg 84%
22:00 +9°C° 0 mm 1 mps 738 mmHg 84%
23:00 +9°C° 0 mm 1 mps 738 mmHg 84%

25 October, Sunday

Time Temperature Precipitation Wind Pressure Humidity
00:00 +8°C° 0 mm 2 mps 738 mmHg 84%
01:00 +8°C° 0 mm 2 mps 738 mmHg 86%
02:00 +7°C° 0 mm 2 mps 738 mmHg 87%
03:00 +7°C° 0 mm 2 mps 738 mmHg 89%
04:00 +7°C° 0 mm 2 mps 738 mmHg 90%
05:00 +7°C° 0 mm 2 mps 737 mmHg 91%
06:00 +7°C° 0 mm 2 mps 737 mmHg 92%
07:00 +7°C° 0.3 mm 3 mps 737 mmHg 92%
08:00 +8°C° 0.3 mm 3 mps 737 mmHg 93%
09:00 +8°C° 0.3 mm 3 mps 736 mmHg 93%
10:00 +8°C° 1.3 mm 3 mps 736 mmHg 94%
11:00 +9°C° 1.3 mm 3 mps 736 mmHg 95%
12:00 +9°C° 1.3 mm 3 mps 736 mmHg 96%
13:00 +8°C° 0.4 mm 4 mps 735 mmHg 96%
14:00 +8°C° 0.4 mm 4 mps 735 mmHg 96%
15:00 +8°C° 0.4 mm 4 mps 734 mmHg 96%
16:00 +9°C° 0.2 mm 3 mps 734 mmHg 96%
17:00 +9°C° 0.2 mm 3 mps 734 mmHg 97%
18:00 +9°C° 0.2 mm 3 mps 734 mmHg 97%
19:00 +9°C° 0.1 mm 3 mps 734 mmHg 97%
20:00 +9°C° 0.1 mm 3 mps 734 mmHg 96%
21:00 +9°C° 0.1 mm 3 mps 734 mmHg 96%
22:00 +9°C° 0.1 mm 3 mps 734 mmHg 95%
23:00 +9°C° 0.1 mm 3 mps 734 mmHg 95%

26 October, Monday

Time Temperature Precipitation Wind Pressure Humidity
00:00 +8°C° 0.1 mm 3 mps 734 mmHg 94%
01:00 +8°C° 0 mm 3 mps 734 mmHg 94%
02:00 +7°C° 0 mm 3 mps 734 mmHg 94%
03:00 +7°C° 0 mm 3 mps 734 mmHg 94%
04:00 +6°C° 0 mm 2 mps 734 mmHg 94%
05:00 +6°C° 0 mm 2 mps 734 mmHg 93%
06:00 +6°C° 0 mm 2 mps 734 mmHg 93%
07:00 +6°C° 0 mm 2 mps 734 mmHg 90%
08:00 +7°C° 0 mm 2 mps 735 mmHg 88%
09:00 +7°C° 0 mm 2 mps 735 mmHg 85%
10:00 +8°C° 0 mm 2 mps 735 mmHg 83%
11:00 +9°C° 0 mm 1 mps 735 mmHg 80%
12:00 +10°C° 0 mm 1 mps 735 mmHg 78%
13:00 +10°C° 0.1 mm 1 mps 736 mmHg 79%
14:00 +9°C° 0.1 mm 2 mps 736 mmHg 81%
15:00 +9°C° 0.1 mm 2 mps 737 mmHg 82%
16:00 +8°C° 0.3 mm 2 mps 737 mmHg 84%
17:00 +8°C° 0.3 mm 3 mps 738 mmHg 86%
18:00 +8°C° 0.3 mm 3 mps 738 mmHg 87%
19:00 +7°C° 0.2 mm 4 mps 739 mmHg 87%
20:00 +7°C° 0.2 mm 6 mps 739 mmHg 87%
21:00 +6°C° 0.2 mm 7 mps 740 mmHg 87%
22:00 +5°C° 0.1 mm 7 mps 740 mmHg 86%
23:00 +5°C° 0.1 mm 7 mps 741 mmHg 86%

27 October, Tuesday

Time Temperature Precipitation Wind Pressure Humidity
00:00 +5°C° 0.1 mm 7 mps 742 mmHg 85%
01:00 +4°C° 0 mm 7 mps 742 mmHg 85%
02:00 +4°C° 0 mm 7 mps 743 mmHg 85%
03:00 +3°C° 0 mm 7 mps 743 mmHg 85%
04:00 +3°C° 0 mm 7 mps 744 mmHg 84%
05:00 +2°C° 0 mm 7 mps 744 mmHg 84%
06:00 +2°C° 0 mm 7 mps 745 mmHg 84%
07:00 +2°C° 0 mm 7 mps 746 mmHg 82%
08:00 +1°C° 0 mm 6 mps 746 mmHg 79%
09:00 +1°C° 0 mm 6 mps 747 mmHg 76%
10:00 +2°C° 0 mm 6 mps 747 mmHg 71%
11:00 +3°C° 0 mm 6 mps 747 mmHg 65%
12:00 +4°C° 0 mm 6 mps 747 mmHg 59%
13:00 +4°C° 0 mm 6 mps 748 mmHg 59%
14:00 +4°C° 0 mm 6 mps 748 mmHg 59%
15:00 +4°C° 0 mm 6 mps 748 mmHg 60%
16:00 +3°C° 0 mm 6 mps 748 mmHg 64%
17:00 +2°C° 0 mm 5 mps 749 mmHg 69%
18:00 +1°C° 0 mm 5 mps 749 mmHg 74%
19:00 +1°C° 0 mm 5 mps 749 mmHg 77%
20:00 +1°C° 0 mm 4 mps 750 mmHg 79%
21:00 0°C° 0 mm 4 mps 750 mmHg 82%
22:00 0°C° 0 mm 4 mps 750 mmHg 83%
23:00 -1°C° 0 mm 4 mps 750 mmHg 84%
Show more